Date String (YYYY-MM-DD hh:mm:ss) UTC,Instrument flags,absolute air pressure of the measurement (hPa),sample flow rate (lpm),inlet stack bypass flow (lpm),air temperature of the measurement (°C),ambient temperature measured by the external sensor (°C),aerosol sample conditioner tube jacket temperature (°C),OPC LED temperature (°C),internal box temperature (°C),relative humidity of the measurement (%),span deviation,mass concentration of particles derived from Lorenz-Mie calculation of OPC scattering (μg/m³),mass concentration of particles derived from Lorenz-Mie calculation of OPC scattering (μg/m³),mass concentration of particles derived from Lorenz-Mie calculation of OPC scattering (μg/m³)
DateTimeUTC,F1_M11,P_M11,Q1_M11,Q2_M11,T1_M11,T2_M11,T3_M11,T4_M11,T5_M11,U1_M11,ZSPAN_M11,X0_M11,X2_M11,X1_M11
2023-10-27 15:00:00,SystemResetWarning,0834.4,5.01,000.00,022.2,020.7,000.0,030.7,023.8,14.6,-001.8,0010.91,0007.33,0006.96
2023-10-27 15:01:00,SystemResetWarning,0834.4,5.00,000.00,022.2,020.7,000.0,030.7,023.8,14.6,-001.8,0011.09,0007.32,0006.96
2023-10-27 15:02:00,SystemResetWarning,0834.7,5.00,000.00,022.2,020.7,000.0,030.7,023.8,14.6,-001.6,0011.12,0007.33,0006.97
2023-10-27 15:03:00,SystemResetWarning,0834.4,4.99,000.00,022.2,020.7,000.0,030.7,023.8,14.7,-001.6,0011.20,0007.36,0006.98
2023-10-27 15:04:00,SystemResetWarning,0834.6,5.00,000.00,022.2,020.7,000.0,030.7,023.8,14.7,-001.5,0011.08,0007.35,0006.97
2023-10-27 15:05:00,SystemResetWarning,0834.4,5.01,000.00,022.2,020.7,000.0,030.7,023.8,14.7,-001.3,0011.01,0007.35,0006.99
2023-10-27 15:06:00,SystemResetWarning,0834.5,5.01,000.00,022.2,020.6,000.0,030.7,023.8,14.6,-000.7,0010.83,0007.36,0006.99
2023-10-27 15:07:00,SystemResetWarning,0834.3,5.01,000.00,022.2,020.6,000.0,030.7,023.8,14.7,0000.1,0010.30,0007.35,0007.00
2023-10-27 15:08:00,SystemResetWarning,0834.3,5.00,000.00,022.2,020.6,000.0,030.7,023.8,14.7,0001.1,0010.26,0007.35,0007.00
2023-10-27 15:09:00,SystemResetWarning,0834.4,4.99,000.00,022.1,020.5,000.0,030.6,023.6,14.7,0002.2,0010.14,0007.33,0007.00
2023-10-27 15:10:00,SystemResetWarning,0834.3,4.99,000.00,022.0,020.4,000.0,030.6,023.5,14.8,0002.0,0010.04,0007.32,0007.00
2023-10-27 15:11:00,SystemResetWarning,0834.4,5.01,000.00,022.0,020.3,000.0,030.6,023.5,14.9,0001.9,0010.21,0007.34,0007.01
2023-10-27 15:12:00,SystemResetWarning,0834.4,5.01,000.00,022.0,020.2,000.0,030.6,023.5,15.0,0001.5,0010.11,0007.34,0007.01
2023-10-27 15:13:00,SystemResetWarning,0834.5,5.01,000.00,021.9,020.2,000.0,030.5,023.4,15.1,0001.2,0010.30,0007.37,0007.01
2023-10-27 15:14:00,SystemResetWarning,0834.5,4.99,000.00,021.9,020.1,000.0,030.5,023.4,15.2,0001.1,0010.44,0007.37,0007.02
2023-10-27 15:15:00,SystemResetWarning,0834.5,4.99,000.00,021.9,020.2,000.0,030.5,023.4,15.3,0000.5,0010.58,0007.39,0007.03
2023-10-27 15:16:00,SystemResetWarning,0834.4,5.00,000.00,021.9,020.2,000.0,030.5,023.4,15.4,0000.9,0010.75,0007.42,0007.01
2023-10-27 15:17:00,SystemResetWarning,0834.4,5.00,000.00,021.8,020.1,000.0,030.4,023.3,15.5,0001.0,0010.72,0007.40,0007.00
2023-10-27 15:18:00,SystemResetWarning,0834.4,5.00,000.00,021.8,020.0,000.0,030.4,023.3,15.6,0000.3,0010.68,0007.38,0006.99
2023-10-27 15:19:00,SystemResetWarning,0834.4,5.00,000.00,021.7,020.0,000.0,030.4,023.2,15.6,0000.7,0010.66,0007.36,0006.97
2023-10-27 15:20:00,SystemResetWarning,0834.4,5.01,000.00,021.7,019.9,000.0,030.3,023.3,15.7,-000.3,0010.75,0007.39,0006.98
2023-10-27 15:21:00,SystemResetWarning,0834.5,5.01,000.00,021.7,019.9,000.0,030.3,023.2,15.8,-000.1,0010.79,0007.41,0006.97
2023-10-27 15:22:00,SystemResetWarning,0834.5,5.00,000.00,021.7,019.9,000.0,030.3,023.2,15.8,-000.8,0010.69,0007.38,0006.96
2023-10-27 15:23:00,SystemResetWarning,0834.5,4.99,000.00,021.6,019.8,000.0,030.3,023.1,16.0,-000.8,0009.97,0007.37,0006.96
2023-10-27 15:24:00,SystemResetWarning,0834.5,4.99,000.00,021.6,019.8,000.0,030.2,023.1,16.1,-000.5,0009.93,0007.37,0006.96
2023-10-27 15:25:00,SystemResetWarning,0834.6,5.01,000.00,021.6,019.8,000.0,030.2,023.1,16.1,-000.7,0009.74,0007.36,0006.96
2023-10-27 15:26:00,SystemResetWarning,0834.5,5.01,000.00,021.6,019.8,000.0,030.2,023.1,16.2,-000.0,0009.72,0007.36,0006.94
2023-10-27 15:27:00,SystemResetWarning,0834.5,5.01,000.00,021.5,019.8,000.0,030.2,023.0,16.2,-000.3,0009.54,0007.34,0006.94
2023-10-27 15:28:00,SystemResetWarning,0834.5,5.01,000.00,021.5,019.8,000.0,030.2,023.0,16.3,-001.4,0009.67,0007.33,0006.95
2023-10-27 15:29:00,SystemResetWarning,0834.4,4.99,000.00,021.5,019.9,000.0,030.2,023.1,16.3,-001.5,0009.99,0007.35,0006.97
2023-10-27 15:30:00,SystemResetWarning,0834.4,4.99,000.00,021.6,019.9,000.0,030.2,023.1,16.3,-002.0,0010.01,0007.38,0006.98
2023-10-27 15:31:00,SystemResetWarning,0834.5,5.00,000.00,021.6,019.9,000.0,030.2,023.1,16.4,-002.1,0010.17,0007.37,0006.99
2023-10-27 15:32:00,SystemResetWarning,0834.5,5.00,000.00,021.6,020.0,000.0,030.1,023.1,16.5,-001.9,0010.36,0007.39,0007.00
2023-10-27 15:33:00,SystemResetWarning,0834.5,5.00,000.00,021.6,020.0,000.0,030.1,023.1,16.5,-001.7,0010.96,0007.41,0007.02
2023-10-27 15:34:00,SystemResetWarning,0834.4,5.00,000.00,021.6,020.0,000.0,030.1,023.1,16.6,-001.4,0011.10,0007.44,0007.03
2023-10-27 15:35:00,SystemResetWarning,0834.4,5.01,000.00,021.6,020.0,000.0,030.1,023.1,16.6,-001.4,0011.15,0007.46,0007.05
2023-10-27 15:36:00,SystemResetWarning,0834.4,5.00,000.00,021.6,020.1,000.0,030.1,023.2,16.6,-001.9,0011.15,0007.48,0007.08
2023-10-27 15:37:00,SystemResetWarning,0834.4,5.00,000.00,021.6,020.1,000.0,030.1,023.2,16.7,-001.9,0011.12,0007.52,0007.12
2023-10-27 15:38:00,SystemResetWarning,0834.5,5.00,000.00,021.6,020.1,000.0,030.1,023.2,16.7,-001.8,0011.11,0007.56,0007.16
2023-10-27 15:39:00,SystemResetWarning,0834.5,5.00,000.00,021.6,020.2,000.0,030.1,023.2,16.7,-001.5,0011.18,0007.60,0007.20
2023-10-27 15:40:00,SystemResetWarning,0834.5,4.99,000.00,021.7,020.2,000.0,030.1,023.2,16.8,-001.3,0010.88,0007.64,0007.24
2023-10-27 15:41:00,SystemResetWarning,0834.5,5.00,000.00,021.7,020.2,000.0,030.1,023.3,16.8,-000.9,0011.19,0007.70,0007.28
2023-10-27 15:42:00,SystemResetWarning,0834.5,5.00,000.00,021.7,020.2,000.0,030.1,023.3,16.8,-000.7,0011.21,0007.74,0007.31
2023-10-27 15:43:00,SystemResetWarning,0834.5,5.01,000.00,021.7,020.2,000.0,030.1,023.2,16.9,-000.2,0011.63,0007.76,0007.33
2023-10-27 15:44:00,SystemResetWarning,0834.5,5.00,000.00,021.6,020.0,000.0,030.1,023.1,17.0,0000.1,0011.55,0007.78,0007.36
2023-10-27 15:45:00,SystemResetWarning,0834.6,5.00,000.00,021.5,020.0,000.0,030.0,023.1,17.1,-000.1,0011.43,0007.80,0007.38
2023-10-27 15:46:00,SystemResetWarning,0834.5,5.00,000.00,021.6,020.0,000.0,030.1,023.1,17.2,-000.1,0011.49,0007.84,0007.41
2023-10-27 15:47:00,SystemResetWarning,0834.5,5.00,000.00,021.6,020.0,000.0,030.0,023.1,17.2,0000.1,0011.43,0007.84,0007.42
2023-10-27 15:48:00,SystemResetWarning,0834.4,4.99,000.00,021.5,020.0,000.0,030.0,023.1,17.3,-000.3,0011.62,0007.81,0007.41
2023-10-27 15:49:00,SystemResetWarning,0834.3,5.00,000.00,021.5,020.0,000.0,030.0,023.1,17.3,-000.4,0011.61,0007.78,0007.40
2023-10-27 15:50:00,SystemResetWarning,0834.7,5.00,000.00,021.5,020.0,000.0,030.0,023.1,17.3,-000.3,0011.57,0007.77,0007.40
2023-10-27 15:51:00,SystemResetWarning,0834.5,4.99,000.00,021.5,020.0,000.0,030.0,023.1,17.4,0000.2,0011.46,0007.73,0007.37
2023-10-27 15:52:00,SystemResetWarning,0834.4,4.99,000.00,021.5,020.0,000.0,030.0,023.1,17.4,0000.1,0011.19,0007.68,0007.35
2023-10-27 15:53:00,SystemResetWarning,0834.3,5.01,000.00,021.5,020.0,000.0,030.0,023.1,17.4,-000.2,0011.06,0007.65,0007.34
2023-10-27 15:54:00,SystemResetWarning,0834.4,5.01,000.00,021.5,020.0,000.0,030.0,023.1,17.4,-000.7,0010.62,0007.64,0007.33
2023-10-27 15:55:00,SystemResetWarning,0834.4,4.99,000.00,021.5,020.0,000.0,030.0,023.1,17.3,-001.4,0009.97,0007.61,0007.32
2023-10-27 15:56:00,SystemResetWarning,0834.4,4.99,000.00,021.5,020.0,000.0,030.0,023.1,17.3,-001.7,0009.82,0007.57,0007.30
2023-10-27 15:57:00,SystemResetWarning,0834.4,5.00,000.00,021.5,020.0,000.0,030.0,023.1,17.3,-001.6,0009.75,0007.54,0007.29
2023-10-27 15:58:00,SystemResetWarning,0834.4,5.00,000.00,021.5,020.0,000.0,030.0,023.1,17.4,-000.5,0009.74,0007.53,0007.27
2023-10-27 15:59:00,SystemResetWarning,0834.5,5.00,000.00,021.5,020.1,000.0,030.0,023.1,17.4,0000.4,0009.56,0007.54,0007.26
